FW4132 Weather Reports


Display with metric or nautical units.
time (UTC)temp
F
wind
direction
speed
MPH
gust
MPH
rain 1hr
in
rain 24hr
in
rain mn
in
humidity
%
barometer
mb
20260903023726 49 91 4.0 13.0 0.04 0.04 0.04 89 1010.0
20260903023511 48 111 5.0 11.0 0.04 0.04 0.04 88 1008.5
20260903023226 49 120 3.0 8.0 0.04 0.04 0.04 88 1010.1
20260903023009 49 105 1.0 11.0 0.03 0.03 0.03 87 1008.7
20260903022725 49 109 3.0 11.0 0.03 0.03 0.03 88 1010.1
20260903022508 49 132 3.0 11.0 0.03 0.03 0.03 87 1008.5
20260903022226 49 82 4.0 11.0 0.03 0.03 0.03 88 1010.0
20260903022015 49 107 3.0 10.0 0.03 0.03 0.03 87 1008.6
20260903021726 49 105 3.0 10.0 0.02 0.02 0.02 88 1010.0
20260903021505 49 108 3.0 10.0 0.02 0.02 0.02 86 1008.7
20260903021226 50 130 2.0 9.0 0.02 0.02 0.02 87 1010.1
20260903021007 49 100 2.0 13.0 0.02 0.02 0.02 87 1008.8
20260903020949 50 115 4.0 13.0 0.01 0.01 0.01 85 1010.2
20260903020512 49 106 2.0 13.0 0.01 0.01 0.01 85 1008.9
20260903020446 50 112 4.0 13.0 0.01 0.01 0.01 84 1010.2
20260903020019 50 131 3.0 13.0 0.01 0.01 0.01 84 1008.8
20260903015725 50 157 4.0 13.0 0.00 0.00 0.00 83 1010.2
20260903015504 50 98 3.0 13.0 0.00 0.00 0.00 83 1008.9
20260903015219 51 103 3.0 13.0 0.00 0.00 0.00 82 1010.2
20260903015003 51 109 2.0 13.0 0.00 0.00 0.00 80 1009.0
20260903014713 51 125 3.0 13.0 0.00 0.00 0.00 79 1010.2
20260903014513 51 325 2.0 13.0 0.00 0.00 0.00 79 1008.8
20260903014207 52 120 2.0 13.0 0.00 0.00 0.00 78 1010.2
20260903014007 51 106 2.0 9.0 0.00 0.00 0.00 77 1008.9
20260903013701 52 238 3.0 9.0 0.00 0.00 0.00 76 1010.2
20260903013511 52 121 3.0 9.0 0.00 0.00 0.00 74 1008.9
20260903013155 53 243 3.0 9.0 0.00 0.00 0.00 74 1010.2
20260903013020 53 190 2.0 9.0 0.00 0.00 0.00 71 1008.8
20260903012909 55 221 3.0 15.0 0.00 0.00 0.00 69 1010.1
20260903012510 55 213 2.0 15.0 0.00 0.00 0.00 68 1008.8
20260903012007 56 79 2.0 15.0 0.00 0.00 0.00 61 1008.5
20260903011635 56 155 5.0 17.0 0.00 0.00 0.00 59 1009.7
20260903011516 56 136 4.0 17.0 0.00 0.00 0.00 59 1008.3
20260903011134 57 131 6.0 20.0 0.00 0.00 0.00 59 1009.5
20260903011013 56 116 5.0 20.0 0.00 0.00 0.00 58 1008.2
20260903010633 57 103 6.0 20.0 0.00 0.00 0.00 57 1009.5
20260903010517 56 80 5.0 20.0 0.00 0.00 0.00 57 1008.2
20260903010011 57 112 6.0 20.0 0.00 0.00 0.00 55 1008.2
20260903005858 57 107 5.0 17.0 0.00 0.00 0.00 56 1009.5
20260903005513 57 138 5.0 17.0 0.00 0.00 0.00 56 1008.2
20260903005134 58 113 5.0 15.0 0.00 0.00 0.00 56 1009.5
20260903005015 57 278 3.0 15.0 0.00 0.00 0.00 56 1008.4
20260903004633 58 231 5.0 13.0 0.00 0.00 0.00 56 1009.5
20260903004512 57 146 5.0 14.0 0.00 0.00 0.00 56 1008.2
20260903004131 58 105 5.0 14.0 0.00 0.00 0.00 55 1009.6
20260903004003 57 114 3.0 14.0 0.00 0.00 0.00 54 1008.3
20260903003505 58 271 2.0 17.0 0.00 0.00 0.00 53 1008.3
20260903003133 58 78 5.0 17.0 0.00 0.00 0.00 54 1009.7
20260903003012 58 300 6.0 19.0 0.00 0.00 0.00 52 1008.5
20260903002631 58 65 8.0 28.0 0.00 0.00 0.00 53 1009.6
20260903002507 58 72 4.0 28.0 0.00 0.00 0.00 54 1008.3
20260903002132 59 113 11.0 28.0 0.00 0.00 0.00 55 1009.5
20260903002008 58 118 10.0 28.0 0.00 0.00 0.00 56 1008.1
20260903001632 59 108 11.0 27.0 0.00 0.00 0.00 57 1009.4
20260903001523 58 105 12.0 21.0 0.00 0.00 0.00 55 1008.1
20260903001131 59 101 9.0 21.0 0.00 0.00 0.00 52 1009.4
20260903001009 59 110 6.0 21.0 0.00 0.00 0.00 52 1008.1
20260903000850 59 100 8.0 21.0 0.00 0.00 0.00 53 1009.2
20260903000514 59 82 9.0 16.0 0.00 0.00 0.00 55 1008.1
20260903000131 59 79 10.0 18.0 0.00 0.00 0.00 54 1009.4
20260903000039 59 74 8.0 28.0 0.00 0.00 0.00 52 1008.0
20260902235632 59 147 11.0 28.0 0.00 0.00 0.00 53 1009.3
20260902235513 59 111 10.0 28.0 0.00 0.00 0.00 53 1007.9
20260902235125 59 100 11.0 28.0 0.00 0.00 0.00 54 1009.4
20260902235012 59 71 10.0 19.0 0.00 0.00 0.00 54 1008.0
20260902234619 59 117 8.0 19.0 0.00 0.00 0.00 55 1009.2
20260902234526 58 128 11.0 19.0 0.00 0.00 0.00 54 1007.9
20260902234113 58 106 4.0 15.0 0.00 0.00 0.00 54 1009.4
20260902234017 58 103 5.0 15.0 0.00 0.00 0.00 53 1008.0
20260902233607 58 105 6.0 18.0 0.00 0.00 0.00 55 1009.5
20260902233516 58 87 2.0 25.0 0.00 0.00 0.00 54 1008.2
20260902233102 58 136 9.0 25.0 0.00 0.00 0.00 55 1009.5
20260902233021 58 101 3.0 25.0 0.00 0.00 0.00 54 1008.2
20260902232555 58 111 11.0 24.0 0.00 0.00 0.00 59 1009.5
20260902232511 58 118 12.0 23.0 0.00 0.00 0.00 57 1008.1
20260902232307 58 90 10.0 22.0 0.00 0.00 0.00 58 1009.6
20260902232003 58 92 9.0 22.0 0.00 0.00 0.00 56 1008.2
20260902231543 58 90 9.0 24.0 0.00 0.00 0.00 58 1009.4
20260902231504 58 103 9.0 24.0 0.00 0.00 0.00 57 1008.2
20260902231302 58 107 9.0 24.0 0.00 0.00 0.00 56 1009.7
20260902231003 58 130 8.0 24.0 0.00 0.00 0.00 55 1008.4
20260902230531 58 119 7.0 18.0 0.00 0.00 0.00 58 1009.6
20260902230506 58 171 7.0 18.0 0.00 0.00 0.00 57 1008.3
20260902230026 58 97 8.0 21.0 0.00 0.00 0.00 56 1009.7
20260902230007 58 109 7.0 21.0 0.00 0.00 0.00 55 1008.4
20260902225743 59 111 9.0 25.0 0.00 0.00 0.00 58 1009.7
20260902225503 58 88 10.0 25.0 0.00 0.00 0.00 56 1008.3
20260902225007 59 107 10.0 27.0 0.00 0.00 0.00 56 1008.6
20260902224507 59 104 10.0 27.0 0.00 0.00 0.00 61 1009.6
20260902224504 59 112 11.0 27.0 0.00 0.00 0.00 60 1008.2
20260902224003 59 130 9.0 23.0 0.00 0.00 0.00 58 1008.6
20260902223503 59 90 13.0 23.0 0.00 0.00 0.00 62 1008.5
20260902223455 59 113 11.0 24.0 0.00 0.00 0.00 62 1009.9
20260902223013 59 83 8.0 20.0 0.00 0.00 0.00 58 1008.4
20260902222950 59 132 8.0 18.0 0.00 0.00 0.00 58 1009.9
20260902222503 59 80 11.0 18.0 0.00 0.00 0.00 58 1008.6
20260902222443 59 98 8.0 18.0 0.00 0.00 0.00 59 1010.0
20260902222004 59 110 9.0 18.0 0.00 0.00 0.00 60 1008.7
20260902221937 59 77 8.0 18.0 0.00 0.00 0.00 61 1010.1
20260902221503 59 111 9.0 19.0 0.00 0.00 0.00 62 1008.6
20260902221431 60 134 10.0 21.0 0.00 0.00 0.00 63 1009.9
20260902221003 59 111 8.0 21.0 0.00 0.00 0.00 59 1008.5
20260902220924 59 119 11.0 21.0 0.00 0.00 0.00 59 1010.0
20260902220503 59 101 13.0 27.0 0.00 0.00 0.00 63 1008.7
20260902220418 59 97 12.0 27.0 0.00 0.00 0.00 61 1010.2
20260902220004 58 110 14.0 27.0 0.00 0.00 0.00 62 1008.8
20260902215912 58 127 13.0 27.0 0.00 0.00 0.00 61 1010.1
20260902215503 58 93 13.0 26.0 0.00 0.00 0.00 59 1008.9
20260902215407 59 109 11.0 26.0 0.00 0.00 0.00 58 1010.4
20260902215003 59 111 10.0 23.0 0.00 0.00 0.00 61 1009.1
20260902214902 59 98 9.0 23.0 0.00 0.00 0.00 62 1010.3
20260902214517 59 102 6.0 21.0 0.00 0.00 0.00 58 1009.0
20260902214355 60 110 10.0 21.0 0.00 0.00 0.00 58 1010.5
20260902214004 59 98 8.0 27.0 0.00 0.00 0.00 61 1009.1
20260902213849 60 113 12.0 27.0 0.00 0.00 0.00 62 1010.2
20260902213503 59 96 10.0 27.0 0.00 0.00 0.00 61 1008.9
20260902213343 60 111 12.0 27.0 0.00 0.00 0.00 60 1010.4
20260902213007 59 88 11.0 27.0 0.00 0.00 0.00 61 1008.8
20260902212838 59 91 12.0 20.0 0.00 0.00 0.00 62 1010.3
20260902212503 58 111 14.0 23.0 0.00 0.00 0.00 62 1009.0
20260902212331 59 106 13.0 24.0 0.00 0.00 0.00 63 1010.4
20260902212045 59 113 12.0 24.0 0.00 0.00 0.00 63 1010.4
20260902212004 58 71 12.0 24.0 0.00 0.00 0.00 63 1009.1
20260902211506 58 87 12.0 24.0 0.00 0.00 0.00 61 1009.2
20260902211319 59 110 11.0 19.0 0.00 0.00 0.00 63 1010.5
20260902211002 59 112 9.0 24.0 0.00 0.00 0.00 61 1009.2
20260902210502 59 132 10.0 24.0 0.00 0.00 0.00 60 1009.2
20260902210308 60 109 11.0 24.0 0.00 0.00 0.00 60 1010.5
20260902210012 60 90 12.0 20.0 0.00 0.00 0.00 63 1009.1
20260902205801 60 112 10.0 18.0 0.00 0.00 0.00 61 1010.4
20260902205503 60 128 8.0 18.0 0.00 0.00 0.00 61 1009.1
20260902205255 61 87 10.0 18.0 0.00 0.00 0.00 63 1010.4
20260902205003 60 119 9.0 17.0 0.00 0.00 0.00 64 1009.0
20260902204751 61 109 9.0 19.0 0.00 0.00 0.00 65 1010.5
20260902204504 60 110 9.0 19.0 0.00 0.00 0.00 64 1009.0
20260902204251 60 130 7.0 19.0 0.00 0.00 0.00 61 1010.7
20260902204014 61 114 6.0 18.0 0.00 0.00 0.00 60 1010.7
20260902204004 60 88 8.0 19.0 0.00 0.00 0.00 60 1009.3
20260902203503 60 106 7.0 16.0 0.00 0.00 0.00 59 1009.3
20260902203252 61 115 5.0 14.0 0.00 0.00 0.00 59 1010.5
20260902203005 61 117 4.0 13.0 0.00 0.00 0.00 57 1009.2
20260902202751 61 107 4.0 12.0 0.00 0.00 0.00 58 1010.5
20260902202503 61 116 4.0 13.0 0.00 0.00 0.00 56 1009.3
20260902202252 62 136 3.0 13.0 0.00 0.00 0.00 58 1010.5
20260902202015 62 107 3.0 13.0 0.00 0.00 0.00 56 1010.5
20260902202004 61 94 1.0 13.0 0.00 0.00 0.00 55 1009.2
20260902201521 62 101 2.0 8.0 0.00 0.00 0.00 54 1009.1
20260902201251 62 293 3.0 12.0 0.00 0.00 0.00 54 1010.5
20260902201002 62 243 3.0 12.0 0.00 0.00 0.00 52 1009.1
20260902200751 63 227 4.0 17.0 0.00 0.00 0.00 51 1010.4
20260902200507 63 106 3.0 17.0 0.00 0.00 0.00 51 1009.2
20260902200250 63 114 4.0 17.0 0.00 0.00 0.00 50 1010.5
20260902200010 63 155 6.0 17.0 0.00 0.00 0.00 51 1009.2
20260902195749 63 109 3.0 14.0 0.00 0.00 0.00 53 1010.5
20260902195506 62 110 3.0 12.0 0.00 0.00 0.00 51 1009.1
20260902195249 63 115 4.0 12.0 0.00 0.00 0.00 49 1010.5
20260902195006 63 130 3.0 16.0 0.00 0.00 0.00 49 1009.2
20260902194750 63 159 7.0 16.0 0.00 0.00 0.00 52 1010.5
20260902194507 63 122 4.0 16.0 0.00 0.00 0.00 53 1009.1
20260902194249 63 112 8.0 16.0 0.00 0.00 0.00 55 1010.5
20260902194004 62 109 7.0 13.0 0.00 0.00 0.00 56 1009.1
20260902193749 63 115 6.0 12.0 0.00 0.00 0.00 56 1010.5
20260902193504 62 109 6.0 14.0 0.00 0.00 0.00 55 1009.1
20260902193249 62 116 5.0 14.0 0.00 0.00 0.00 55 1010.4
20260902193011 62 62 3.0 14.0 0.00 0.00 0.00 55 1009.2
20260902192749 62 70 6.0 14.0 0.00 0.00 0.00 55 1010.4
20260902192503 62 96 5.0 14.0 0.00 0.00 0.00 55 1009.2
20260902192243 63 116 6.0 14.0 0.00 0.00 0.00 55 1010.5
20260902192004 62 109 4.0 13.0 0.00 0.00 0.00 54 1009.2
20260902191740 63 94 6.0 14.0 0.00 0.00 0.00 53 1010.5
20260902191517 62 129 2.0 14.0 0.00 0.00 0.00 55 1009.2
20260902191241 62 103 6.0 14.0 0.00 0.00 0.00 53 1010.7
20260902191004 62 109 8.0 14.0 0.00 0.00 0.00 53 1009.2
20260902190740 63 96 6.0 15.0 0.00 0.00 0.00 53 1010.7
20260902190506 62 128 3.0 15.0 0.00 0.00 0.00 54 1009.2
20260902190241 62 102 7.0 15.0 0.00 0.00 0.00 54 1010.7
20260902190012 62 151 9.0 15.0 0.00 0.00 0.00 55 1009.3
20260902185741 62 113 5.0 13.0 0.00 0.00 0.00 56 1010.7
20260902185503 62 104 6.0 11.0 0.00 0.00 0.00 56 1009.3
20260902185241 62 28 4.0 13.0 0.00 0.00 0.00 57 1010.8
20260902185008 61 120 3.0 13.0 0.00 0.00 0.00 56 1009.3
20260902184741 61 117 5.0 13.0 0.00 0.00 0.00 56 1010.7
20260902184516 61 117 7.0 13.0 0.00 0.00 0.00 56 1009.3
20260902184241 61 116 5.0 12.0 0.00 0.00 0.00 56 1010.7
20260902184002 60 141 5.0 12.0 0.00 0.00 0.00 56 1009.4
20260902183740 60 105 5.0 11.0 0.00 0.00 0.00 56 1010.8
20260902183507 60 118 4.0 11.0 0.00 0.00 0.00 54 1009.4
20260902183241 60 136 4.0 11.0 0.00 0.00 0.00 55 1010.9
20260902183015 59 109 4.0 10.0 0.00 0.00 0.00 57 1009.5
20260902182737 60 107 4.0 14.0 0.00 0.00 0.00 57 1010.9
20260902182507 59 115 1.0 14.0 0.00 0.00 0.00 54 1009.5
20260902182237 60 94 4.0 14.0 0.00 0.00 0.00 54 1010.9
20260902182007 59 132 7.0 14.0 0.00 0.00 0.00 52 1009.6
20260902181737 60 116 3.0 11.0 0.00 0.00 0.00 54 1011.0
20260902181512 59 85 4.0 13.0 0.00 0.00 0.00 56 1009.5
20260902181237 60 132 4.0 13.0 0.00 0.00 0.00 56 1010.9
20260902181008 59 93 2.0 13.0 0.00 0.00 0.00 57 1009.6
20260902180737 60 244 3.0 13.0 0.00 0.00 0.00 57 1010.9
20260902180509 59 109 5.0 12.0 0.00 0.00 0.00 58 1009.6
20260902180238 60 104 2.0 10.0 0.00 0.00 0.00 58 1010.9
20260902180016 59 107 3.0 9.0 0.00 0.00 0.00 58 1009.5
20260902180005 59 109 2.0 7.0 0.00 0.00 0.00 60 1010.9
20260902175506 59 121 0.0 9.0 0.00 0.00 0.00 58 1009.5
20260902175006 59 108 1.0 9.0 0.00 0.00 0.00 58 1009.4
20260902174736 59 126 6.0 13.0 0.00 0.00 0.00 59 1010.5
20260902174511 58 103 4.0 13.0 0.00 0.00 0.00 60 1009.4
20260902174233 59 80 7.0 13.0 0.00 0.00 0.00 62 1010.4
20260902174007 58 121 9.0 13.0 0.00 0.00 0.00 61 1009.3
20260902173733 59 114 6.0 13.0 0.00 0.00 0.00 62 1010.4
20260902173507 59 105 7.0 13.0 0.00 0.00 0.00 60 1009.4
20260902173232 59 105 4.0 11.0 0.00 0.00 0.00 60 1010.8
20260902173021 59 117 4.0 10.0 0.00 0.00 0.00 60 1009.4
20260902172733 59 82 2.0 10.0 0.00 0.00 0.00 60 1010.8
20260902172511 59 102 3.0 7.0 0.00 0.00 0.00 61 1009.4
20260902172232 60 244 3.0 8.0 0.00 0.00 0.00 59 1010.8
20260902172009 59 103 1.0 8.0 0.00 0.00 0.00 59 1009.3
20260902171733 59 136 3.0 8.0 0.00 0.00 0.00 60 1010.7
20260902171524 59 109 4.0 8.0 0.00 0.00 0.00 60 1009.3
20260902171232 59 114 3.0 8.0 0.00 0.00 0.00 60 1010.5
20260902171003 58 105 1.0 8.0 0.00 0.00 0.00 58 1009.3
20260902170733 59 117 3.0 8.0 0.00 0.00 0.00 59 1010.7
20260902170507 58 107 3.0 8.0 0.00 0.00 0.00 60 1009.4
20260902170231 58 136 2.0 7.0 0.00 0.00 0.00 60 1010.5
20260902170016 58 177 1.0 8.0 0.00 0.00 0.00 59 1009.2
20260902165730 58 183 2.0 8.0 0.00 0.00 0.00 60 1010.5
20260902165512 58 161 1.0 8.0 0.00 0.00 0.00 59 1009.3
20260902165442 58 108 3.0 8.0 0.00 0.00 0.00 60 1010.5
20260902165008 57 131 1.0 10.0 0.00 0.00 0.00 60 1009.3
20260902164719 58 118 4.0 10.0 0.00 0.00 0.00 61 1010.7
20260902164517 57 124 2.0 10.0 0.00 0.00 0.00 63 1009.2
20260902164213 58 119 3.0 10.0 0.00 0.00 0.00 63 1010.4
20260902164010 57 137 3.0 8.0 0.00 0.00 0.00 62 1009.2
20260902163706 58 110 2.0 7.0 0.00 0.00 0.00 64 1010.3
20260902163506 57 110 2.0 7.0 0.00 0.00 0.00 62 1009.0
20260902163204 58 123 3.0 8.0 0.00 0.00 0.00 64 1010.2
20260902163014 57 123 3.0 8.0 0.00 0.00 0.00 65 1008.9
20260902162704 58 106 4.0 8.0 0.00 0.00 0.00 66 1010.2
20260902162508 57 105 3.0 8.0 0.00 0.00 0.00 67 1008.9
20260902162205 57 114 5.0 8.0 0.00 0.00 0.00 67 1010.3
20260902162008 57 115 4.0 8.0 0.00 0.00 0.00 68 1008.9
20260902161931 57 105 3.0 7.0 0.00 0.00 0.00 68 1010.3
20260902161520 57 107 4.0 7.0 0.00 0.00 0.00 69 1008.9
20260902161205 57 110 2.0 6.0 0.00 0.00 0.00 68 1010.2
20260902161011 57 112 2.0 6.0 0.00 0.00 0.00 68 1008.9
20260902160511 57 116 2.0 6.0 0.00 0.00 0.00 68 1008.9
20260902160203 57 116 3.0 6.0 0.00 0.00 0.00 69 1010.2
20260902160034 57 107 3.0 6.0 0.00 0.00 0.00 69 1008.9
20260902155703 57 99 1.0 6.0 0.00 0.00 0.00 70 1010.1
20260902155515 56 123 0.0 3.0 0.00 0.00 0.00 68 1008.9
20260902155202 57 142 0.0 2.0 0.00 0.00 0.00 65 1010.2
20260902155011 56 156 0.0 2.0 0.00 0.00 0.00 63 1008.9
20260902154703 56 155 0.0 2.0 0.00 0.00 0.00 64 1010.2
20260902154538 56 155 0.0 2.0 0.00 0.00 0.00 65 1009.0
20260902154202 56 142 0.0 3.0 0.00 0.00 0.00 68 1010.2
20260902154009 56 142 0.0 4.0 0.00 0.00 0.00 68 1009.0
20260902153701 56 234 1.0 4.0 0.00 0.00 0.00 67 1010.2
20260902153510 56 236 0.0 6.0 0.00 0.00 0.00 67 1008.9
20260902153158 56 106 2.0 8.0 0.00 0.00 0.00 68 1010.2
20260902153035 56 105 2.0 8.0 0.00 0.00 0.00 69 1008.9
20260902152659 56 109 2.0 8.0 0.00 0.00 0.00 70 1010.2
20260902152510 55 110 3.0 8.0 0.00 0.00 0.00 70 1009.0
20260902152158 56 107 1.0 6.0 0.00 0.00 0.00 70 1010.2
20260902152007 55 105 2.0 6.0 0.00 0.00 0.00 69 1009.0
20260902151659 55 107 2.0 6.0 0.00 0.00 0.00 70 1010.5
20260902151517 55 107 1.0 7.0 0.00 0.00 0.00 70 1009.3
20260902151158 55 118 4.0 8.0 0.00 0.00 0.00 71 1010.5
20260902151007 55 115 3.0 8.0 0.00 0.00 0.00 70 1009.2
20260902150657 55 109 4.0 8.0 0.00 0.00 0.00 73 1010.5
20260902150511 55 98 4.0 8.0 0.00 0.00 0.00 73 1009.2
20260902150151 55 101 3.0 7.0 0.00 0.00 0.00 73 1010.4
20260902150025 54 117 2.0 7.0 0.00 0.00 0.00 72 1009.0
20260902145906 54 96 3.0 7.0 0.00 0.00 0.00 73 1010.4
20260902145512 54 108 2.0 7.0 0.00 0.00 0.00 73 1009.2
20260902145137 54 109 2.0 4.0 0.00 0.00 0.00 73 1010.8
20260902145011 53 100 3.0 4.0 0.00 0.00 0.00 72 1009.4
20260902144631 54 107 1.0 4.0 0.00 0.00 0.00 73 1010.8
20260902144523 53 128 0.0 3.0 0.00 0.00 0.00 72 1009.4
20260902144127 53 200 1.0 3.0 0.00 0.00 0.00 72 1010.8
20260902144013 53 236 0.0 3.0 0.00 0.00 0.00 71 1009.5
20260902143620 53 236 1.0 3.0 0.00 0.00 0.00 71 1010.8
20260902143510 53 236 0.0 3.0 0.00 0.00 0.00 71 1009.5
20260902143114 53 186 1.0 3.0 0.00 0.00 0.00 73 1010.8
20260902143024 52 186 0.0 3.0 0.00 0.00 0.00 73 1009.4
20260902142608 53 78 1.0 3.0 0.00 0.00 0.00 73 1010.8
20260902142515 52 78 0.0 3.0 0.00 0.00 0.00 72 1009.3
20260902142102 52 68 1.0 8.0 0.00 0.00 0.00 73 1010.7
20260902142009 52 68 0.0 8.0 0.00 0.00 0.00 73 1009.3
20260902141556 52 110 2.0 8.0 0.00 0.00 0.00 74 1010.4
20260902141513 52 110 1.0 8.0 0.00 0.00 0.00 74 1008.9
20260902141050 52 244 2.0 8.0 0.00 0.00 0.00 75 1010.5
20260902141008 51 118 3.0 8.0 0.00 0.00 0.00 75 1009.2
20260902140545 51 138 1.0 6.0 0.00 0.00 0.00 75 1010.8
20260902140504 51 147 1.0 6.0 0.00 0.00 0.00 74 1009.5
20260902140038 51 131 2.0 8.0 0.00 0.00 0.00 76 1010.7
20260902140012 50 170 1.0 8.0 0.00 0.00 0.00 77 1009.3
20260902135532 50 126 2.0 8.0 0.00 0.00 0.00 79 1010.5
20260902135507 49 126 1.0 8.0 0.00 0.00 0.00 79 1009.0
20260902135026 49 111 3.0 8.0 0.00 0.00 0.00 82 1010.2
20260902135011 48 120 1.0 8.0 0.00 0.00 0.00 81 1008.7
20260902134520 48 109 2.0 8.0 0.00 0.00 0.00 83 1010.1
20260902134509 47 111 3.0 8.0 0.00 0.00 0.00 83 1008.6
20260902134014 47 106 0.0 7.0 0.00 0.00 0.00 84 1010.0
20260902134003 46 119 2.0 7.0 0.00 0.00 0.00 83 1008.5
20260902133508 46 107 0.0 1.0 0.00 0.00 0.00 82 1009.9
20260902133505 46 107 0.0 1.0 0.00 0.00 0.00 81 1008.5
20260902133004 46 107 0.0 1.0 0.00 0.00 0.00 80 1008.4
20260902133002 47 107 0.0 1.0 0.00 0.00 0.00 81 1009.9
20260902132508 46 107 0.0 1.0 0.00 0.00 0.00 79 1008.3
20260902132456 47 107 0.0 1.0 0.00 0.00 0.00 79 1009.7
20260902132213 47 107 0.0 0.0 0.00 0.00 0.00 79 1009.9
20260902132004 47 107 0.0 0.0 0.00 0.00 0.00 79 1008.2
20260902131511 47 107 0.0 1.0 0.00 0.00 0.00 79 1008.3
20260902131444 47 107 0.0 1.0 0.00 0.00 0.00 79 1009.7
20260902131005 47 107 0.0 1.0 0.00 0.00 0.00 78 1008.3
20260902130939 48 107 0.0 1.0 0.00 0.00 0.00 78 1009.6
20260902130507 48 107 0.0 0.0 0.00 0.00 0.00 77 1008.1
20260902130432 48 107 0.0 0.0 0.00 0.00 0.00 78 1009.5
20260902130015 48 107 0.0 1.0 0.00 0.00 0.00 76 1008.1
20260902125925 49 107 0.0 1.0 0.00 0.00 0.00 77 1009.5
20260902125508 49 107 0.0 1.0 0.00 0.00 0.00 76 1008.1
20260902125421 49 107 0.0 1.0 0.00 0.00 0.00 77 1009.5
20260902125004 49 107 0.0 1.0 0.00 0.00 0.00 76 1008.2
20260902124914 49 107 0.0 1.0 0.00 0.00 0.00 77 1009.6
20260902124520 49 107 0.0 1.0 0.00 0.00 0.00 76 1008.3
20260902124408 49 107 0.0 1.0 0.00 0.00 0.00 77 1009.7
20260902124012 49 107 0.0 1.0 0.00 0.00 0.00 76 1008.2
20260902123902 50 107 0.0 2.0 0.00 0.00 0.00 76 1009.7
20260902123504 50 106 0.0 7.0 0.00 0.00 0.00 77 1008.3
20260902123355 51 106 2.0 7.0 0.00 0.00 0.00 77 1009.7
20260902123112 51 106 3.0 7.0 0.00 0.00 0.00 80 1009.9
20260902123016 50 106 2.0 7.0 0.00 0.00 0.00 80 1008.3
20260902122512 51 99 4.0 7.0 0.00 0.00 0.00 79 1008.3
20260902122344 51 117 2.0 6.0 0.00 0.00 0.00 79 1009.7
20260902122003 51 113 2.0 4.0 0.00 0.00 0.00 79 1008.3
20260902121837 51 113 2.0 4.0 0.00 0.00 0.00 79 1009.7
20260902121511 51 112 1.0 4.0 0.00 0.00 0.00 78 1008.2
20260902121332 51 112 2.0 4.0 0.00 0.00 0.00 78 1009.7
20260902121007 51 112 1.0 4.0 0.00 0.00 0.00 77 1008.2
20260902120825 51 112 2.0 4.0 0.00 0.00 0.00 78 1009.6
20260902120506 51 111 2.0 6.0 0.00 0.00 0.00 76 1008.3
20260902120320 51 110 3.0 6.0 0.00 0.00 0.00 77 1009.7
20260902120006 51 113 2.0 6.0 0.00 0.00 0.00 76 1008.4
20260902115814 51 113 3.0 6.0 0.00 0.00 0.00 77 1009.9
20260902115505 51 107 3.0 6.0 0.00 0.00 0.00 75 1008.4
20260902115309 51 109 2.0 4.0 0.00 0.00 0.00 75 1009.9
20260902115013 51 115 2.0 4.0 0.00 0.00 0.00 75 1008.4
20260902114802 52 115 2.0 4.0 0.00 0.00 0.00 76 1010.0
20260902114534 51 109 2.0 4.0 0.00 0.00 0.00 76 1008.5
20260902114256 52 105 1.0 4.0 0.00 0.00 0.00 76 1009.9
20260902114004 51 109 0.0 4.0 0.00 0.00 0.00 74 1008.5
20260902113750 52 109 1.0 4.0 0.00 0.00 0.00 75 1010.0
20260902113507 52 109 1.0 4.0 0.00 0.00 0.00 74 1008.4
20260902113244 52 109 1.0 3.0 0.00 0.00 0.00 72 1009.9
20260902113027 52 108 0.0 3.0 0.00 0.00 0.00 72 1008.5
20260902112740 52 108 2.0 3.0 0.00 0.00 0.00 72 1010.0
20260902112515 52 107 2.0 3.0 0.00 0.00 0.00 72 1008.5
20260902112232 52 111 2.0 4.0 0.00 0.00 0.00 73 1010.0
20260902112010 52 110 1.0 4.0 0.00 0.00 0.00 72 1008.5
20260902111953 52 111 2.0 4.0 0.00 0.00 0.00 73 1010.1
20260902111525 52 112 2.0 4.0 0.00 0.00 0.00 73 1008.5
20260902111437 53 116 2.0 4.0 0.00 0.00 0.00 72 1010.1
20260902111013 52 109 1.0 4.0 0.00 0.00 0.00 71 1008.6
20260902110950 53 109 3.0 4.0 0.00 0.00 0.00 71 1010.1
20260902110508 52 109 2.0 4.0 0.00 0.00 0.00 71 1008.7
20260902110436 53 107 3.0 6.0 0.00 0.00 0.00 71 1010.2
20260902110012 52 114 2.0 6.0 0.00 0.00 0.00 70 1008.8
20260902105706 53 105 2.0 6.0 0.00 0.00 0.00 70 1010.2
20260902105506 52 111 2.0 6.0 0.00 0.00 0.00 69 1008.8
20260902105206 53 114 2.0 4.0 0.00 0.00 0.00 69 1010.2
20260902105008 52 115 1.0 4.0 0.00 0.00 0.00 69 1008.8
20260902104704 53 114 3.0 4.0 0.00 0.00 0.00 69 1010.1
20260902104519 53 114 3.0 4.0 0.00 0.00 0.00 69 1008.7
20260902104203 53 111 2.0 4.0 0.00 0.00 0.00 69 1010.2
20260902104007 53 116 2.0 4.0 0.00 0.00 0.00 69 1008.7
20260902103704 53 117 2.0 4.0 0.00 0.00 0.00 69 1010.2
20260902103510 53 120 2.0 4.0 0.00 0.00 0.00 69 1008.8
20260902103204 53 113 2.0 4.0 0.00 0.00 0.00 68 1010.2
20260902103028 53 113 1.0 4.0 0.00 0.00 0.00 67 1009.0
20260902102705 53 113 3.0 6.0 0.00 0.00 0.00 67 1010.4
20260902102510 53 113 2.0 6.0 0.00 0.00 0.00 68 1009.1
20260902102204 54 111 3.0 6.0 0.00 0.00 0.00 68 1010.4
20260902102014 53 109 3.0 6.0 0.00 0.00 0.00 67 1009.2
20260902101925 54 111 2.0 6.0 0.00 0.00 0.00 67 1010.4
20260902101524 53 109 2.0 6.0 0.00 0.00 0.00 67 1009.3
20260902101202 54 115 2.0 4.0 0.00 0.00 0.00 67 1010.5
20260902101007 54 111 1.0 4.0 0.00 0.00 0.00 66 1009.3
20260902100702 54 112 2.0 3.0 0.00 0.00 0.00 67 1010.5
20260902100510 54 117 1.0 3.0 0.00 0.00 0.00 65 1009.4
20260902100429 55 115 1.0 3.0 0.00 0.00 0.00 66 1010.5
20260902100033 54 115 1.0 3.0 0.00 0.00 0.00 66 1009.3
20260902095702 55 113 1.0 3.0 0.00 0.00 0.00 65 1010.7
20260902095516 55 113 1.0 3.0 0.00 0.00 0.00 64 1009.5
20260902095419 55 113 1.0 3.0 0.00 0.00 0.00 63 1010.8
20260902095009 55 113 0.0 4.0 0.00 0.00 0.00 62 1009.6
20260902094701 55 112 1.0 4.0 0.00 0.00 0.00 64 1010.8
20260902094528 55 112 1.0 4.0 0.00 0.00 0.00 64 1009.6
20260902094158 56 113 0.0 4.0 0.00 0.00 0.00 65 1010.8
20260902094007 55 111 0.0 0.0 0.00 0.00 0.00 63 1009.7
20260902093658 56 109 0.0 0.0 0.00 0.00 0.00 62 1010.9
20260902093508 56 110 0.0 1.0 0.00 0.00 0.00 61 1009.7
20260902093158 56 110 0.0 1.0 0.00 0.00 0.00 62 1011.0
20260902093016 56 110 0.0 1.0 0.00 0.00 0.00 61 1009.8
20260902092658 56 110 0.0 1.0 0.00 0.00 0.00 61 1011.0
20260902092507 56 111 0.0 2.0 0.00 0.00 0.00 59 1009.8
20260902092009 56 111 0.0 2.0 0.00 0.00 0.00 58 1009.9
20260902091918 57 111 0.0 2.0 0.00 0.00 0.00 58 1011.1
20260902091523 57 111 0.0 2.0 0.00 0.00 0.00 59 1009.9
20260902091157 57 111 1.0 2.0 0.00 0.00 0.00 59 1011.2
20260902091015 57 111 0.0 2.0 0.00 0.00 0.00 59 1010.0
20260902090658 58 110 1.0 4.0 0.00 0.00 0.00 59 1011.2
20260902090513 57 110 0.0 4.0 0.00 0.00 0.00 59 1010.0
20260902090158 58 111 1.0 4.0 0.00 0.00 0.00 60 1011.3
20260902090035 57 111 1.0 4.0 0.00 0.00 0.00 59 1010.0
20260902085917 58 123 0.0 3.0 0.00 0.00 0.00 59 1011.2
20260902085511 57 149 0.0 4.0 0.00 0.00 0.00 58 1010.0
20260902085154 58 145 1.0 4.0 0.00 0.00 0.00 59 1011.2
20260902085015 57 103 0.0 4.0 0.00 0.00 0.00 59 1010.0
20260902084653 58 115 2.0 4.0 0.00 0.00 0.00 60 1011.2
20260902084541 57 117 2.0 4.0 0.00 0.00 0.00 59 1009.9
20260902084154 58 165 2.0 9.0 0.00 0.00 0.00 58 1011.2
20260902084008 58 192 1.0 9.0 0.00 0.00 0.00 58 1009.9
20260902083916 58 108 3.0 9.0 0.00 0.00 0.00 60 1011.2
20260902083513 58 127 4.0 9.0 0.00 0.00 0.00 59 1010.0
20260902083154 58 120 3.0 9.0 0.00 0.00 0.00 61 1011.3
20260902083036 58 123 2.0 8.0 0.00 0.00 0.00 60 1010.0
20260902082653 58 91 3.0 8.0 0.00 0.00 0.00 61 1011.1
20260902082515 58 107 3.0 8.0 0.00 0.00 0.00 58 1010.0
20260902082414 58 99 3.0 8.0 0.00 0.00 0.00 59 1011.2
20260902082008 58 56 2.0 7.0 0.00 0.00 0.00 58 1009.9
20260902081919 58 116 2.0 7.0 0.00 0.00 0.00 59 1011.2
20260902081521 58 109 2.0 7.0 0.00 0.00 0.00 59 1010.0
20260902081150 58 107 2.0 7.0 0.00 0.00 0.00 59 1011.3
20260902081013 58 94 1.0 7.0 0.00 0.00 0.00 58 1010.0
20260902080649 58 110 1.0 7.0 0.00 0.00 0.00 58 1011.2
20260902080509 58 104 1.0 7.0 0.00 0.00 0.00 59 1010.0
20260902080408 59 106 2.0 7.0 0.00 0.00 0.00 59 1011.1
20260902080026 58 101 0.0 7.0 0.00 0.00 0.00 59 1009.9
20260902075650 59 191 2.0 10.0 0.00 0.00 0.00 58 1011.1
20260902075513 58 96 0.0 10.0 0.00 0.00 0.00 59 1009.9
20260902075150 59 113 2.0 10.0 0.00 0.00 0.00 59 1011.1
20260902075003 58 138 1.0 11.0 0.00 0.00 0.00 59 1009.8
20260902074649 59 59 2.0 11.0 0.00 0.00 0.00 61 1011.1
20260902074513 58 112 1.0 11.0 0.00 0.00 0.00 60 1009.8
20260902074148 59 109 3.0 11.0 0.00 0.00 0.00 60 1011.1
20260902074002 59 96 1.0 8.0 0.00 0.00 0.00 60 1009.8
20260902073645 59 92 4.0 13.0 0.00 0.00 0.00 62 1011.1
20260902073503 59 102 3.0 13.0 0.00 0.00 0.00 60 1009.9
20260902073146 59 103 4.0 13.0 0.00 0.00 0.00 60 1011.1
20260902073014 59 119 5.0 13.0 0.00 0.00 0.00 60 1009.8
20260902072646 59 103 5.0 13.0 0.00 0.00 0.00 61 1011.0
20260902072503 59 86 4.0 13.0 0.00 0.00 0.00 59 1009.8
20260902072146 59 101 5.0 13.0 0.00 0.00 0.00 60 1011.1
20260902072004 59 112 5.0 13.0 0.00 0.00 0.00 60 1009.8
20260902071645 59 115 6.0 11.0 0.00 0.00 0.00 60 1011.1
20260902071514 59 111 5.0 11.0 0.00 0.00 0.00 59 1009.8
20260902071146 59 111 6.0 15.0 0.00 0.00 0.00 61 1011.2
20260902071010 59 113 5.0 15.0 0.00 0.00 0.00 60 1009.9
20260902070504 59 120 6.0 15.0 0.00 0.00 0.00 58 1009.9
20260902070133 59 115 6.0 12.0 0.00 0.00 0.00 58 1011.3
20260902070010 59 104 5.0 12.0 0.00 0.00 0.00 58 1009.9
20260902065628 59 111 6.0 11.0 0.00 0.00 0.00 58 1011.2
20260902065509 59 115 5.0 11.0 0.00 0.00 0.00 58 1010.0
20260902065122 59 127 6.0 12.0 0.00 0.00 0.00 58 1011.2
20260902065017 59 103 5.0 12.0 0.00 0.00 0.00 58 1010.0
20260902064616 60 110 5.0 12.0 0.00 0.00 0.00 59 1011.3
20260902064508 59 146 5.0 12.0 0.00 0.00 0.00 57 1009.9
20260902064110 60 103 6.0 12.0 0.00 0.00 0.00 57 1011.3
20260902064005 59 102 5.0 12.0 0.00 0.00 0.00 56 1010.0
20260902063823 60 111 6.0 12.0 0.00 0.00 0.00 57 1011.3
20260902063502 59 103 7.0 11.0 0.00 0.00 0.00 55 1010.0
20260902063059 60 139 6.0 13.0 0.00 0.00 0.00 56 1011.3
20260902063006 59 98 6.0 13.0 0.00 0.00 0.00 55 1010.0
20260902062552 60 87 7.0 13.0 0.00 0.00 0.00 55 1011.5
20260902062503 59 123 6.0 13.0 0.00 0.00 0.00 55 1010.1
20260902062046 60 126 6.0 13.0 0.00 0.00 0.00 55 1011.6
20260902062010 59 111 8.0 13.0 0.00 0.00 0.00 55 1010.1
20260902061540 59 100 5.0 11.0 0.00 0.00 0.00 54 1011.6
20260902061514 59 113 5.0 11.0 0.00 0.00 0.00 54 1010.2
20260902061034 59 103 4.0 10.0 0.00 0.00 0.00 54 1011.7
20260902061006 59 115 5.0 10.0 0.00 0.00 0.00 54 1010.3
20260902060528 59 141 4.0 9.0 0.00 0.00 0.00 54 1011.7
20260902060512 59 105 3.0 9.0 0.00 0.00 0.00 54 1010.3
20260902060023 59 113 3.0 11.0 0.00 0.00 0.00 54 1010.2
20260902055516 60 80 5.0 11.0 0.00 0.00 0.00 55 1011.5
20260902055503 59 93 4.0 11.0 0.00 0.00 0.00 54 1010.2
20260902055010 60 111 5.0 13.0 0.00 0.00 0.00 55 1011.5
20260902055004 59 110 4.0 13.0 0.00 0.00 0.00 54 1010.3
20260902054723 60 92 6.0 13.0 0.00 0.00 0.00 55 1011.5
20260902054524 59 108 5.0 13.0 0.00 0.00 0.00 54 1010.3
20260902054013 59 115 5.0 13.0 0.00 0.00 0.00 55 1010.1
20260902053957 60 113 6.0 13.0 0.00 0.00 0.00 55 1011.5
20260902053507 59 130 5.0 12.0 0.00 0.00 0.00 54 1010.0
20260902053452 60 125 7.0 12.0 0.00 0.00 0.00 55 1011.3
20260902053016 59 107 5.0 13.0 0.00 0.00 0.00 55 1010.1
20260902052946 60 112 7.0 13.0 0.00 0.00 0.00 55 1011.5
20260902052504 59 115 6.0 13.0 0.00 0.00 0.00 55 1010.1
20260902052440 60 111 7.0 13.0 0.00 0.00 0.00 56 1011.5
20260902052006 59 110 6.0 13.0 0.00 0.00 0.00 55 1010.2
20260902051934 60 114 6.0 12.0 0.00 0.00 0.00 56 1011.5
20260902051511 59 105 5.0 17.0 0.00 0.00 0.00 56 1010.1
20260902051428 60 90 7.0 17.0 0.00 0.00 0.00 57 1011.5
20260902051007 60 118 7.0 17.0 0.00 0.00 0.00 56 1010.3
20260902050922 60 40 7.0 17.0 0.00 0.00 0.00 56 1011.5
20260902050638 60 116 7.0 13.0 0.00 0.00 0.00 56 1011.7
20260902050508 60 91 7.0 13.0 0.00 0.00 0.00 56 1010.3
20260902050008 60 110 6.0 16.0 0.00 0.00 0.00 55 1010.4
20260902045910 60 104 8.0 16.0 0.00 0.00 0.00 56 1011.7
20260902045510 59 108 5.0 16.0 0.00 0.00 0.00 56 1010.3
20260902045404 60 109 9.0 16.0 0.00 0.00 0.00 56 1011.7
20260902045008 60 123 8.0 16.0 0.00 0.00 0.00 56 1010.3
20260902044619 60 112 8.0 16.0 0.00 0.00 0.00 54 1011.7
20260902044521 59 118 9.0 16.0 0.00 0.00 0.00 56 1010.3
20260902044006 59 105 7.0 17.0 0.00 0.00 0.00 56 1010.4
20260902043847 60 120 8.0 17.0 0.00 0.00 0.00 55 1011.8
20260902043510 60 83 8.0 17.0 0.00 0.00 0.00 55 1010.3
20260902043340 60 130 9.0 17.0 0.00 0.00 0.00 56 1011.6
20260902043102 60 111 9.0 16.0 0.00 0.00 0.00 56 1011.6
20260902043027 60 67 9.0 16.0 0.00 0.00 0.00 56 1010.3
20260902042505 60 116 8.0 16.0 0.00 0.00 0.00 55 1010.4
20260902042328 60 108 9.0 16.0 0.00 0.00 0.00 56 1011.7
20260902042008 60 92 8.0 16.0 0.00 0.00 0.00 55 1010.6
20260902041822 60 102 9.0 16.0 0.00 0.00 0.00 55 1011.7
20260902041540 60 101 9.0 16.0 0.00 0.00 0.00 54 1010.4
20260902041318 60 108 9.0 16.0 0.00 0.00 0.00 54 1011.8
20260902041040 60 110 10.0 16.0 0.00 0.00 0.00 55 1011.8
20260902041014 60 108 8.0 16.0 0.00 0.00 0.00 53 1010.4
20260902040504 60 98 9.0 16.0 0.00 0.00 0.00 55 1010.3
20260902040313 60 103 10.0 20.0 0.00 0.00 0.00 54 1011.7
20260902040012 60 113 11.0 20.0 0.00 0.00 0.00 54 1010.3
20260902035814 61 117 10.0 20.0 0.00 0.00 0.00 55 1011.8
20260902035507 60 104 10.0 20.0 0.00 0.00 0.00 55 1010.3
20260902035315 61 98 9.0 16.0 0.00 0.00 0.00 55 1011.9
20260902035002 60 98 9.0 16.0 0.00 0.00 0.00 53 1010.4
20260902034814 60 109 8.0 16.0 0.00 0.00 0.00 55 1011.9
20260902034504 60 105 8.0 13.0 0.00 0.00 0.00 54 1010.4
20260902034315 60 128 7.0 13.0 0.00 0.00 0.00 55 1011.9
20260902034038 60 111 7.0 13.0 0.00 0.00 0.00 54 1011.9
20260902034002 60 102 8.0 13.0 0.00 0.00 0.00 53 1010.4
20260902033502 60 117 6.0 13.0 0.00 0.00 0.00 53 1010.3
20260902033314 61 93 7.0 13.0 0.00 0.00 0.00 53 1011.8
20260902033004 60 148 5.0 13.0 0.00 0.00 0.00 52 1010.3
20260902032814 61 98 6.0 13.0 0.00 0.00 0.00 52 1011.6
20260902032501 61 113 6.0 11.0 0.00 0.00 0.00 54 1010.3
20260902032315 61 88 5.0 11.0 0.00 0.00 0.00 52 1011.6
20260902032041 61 107 6.0 12.0 0.00 0.00 0.00 51 1011.6
20260902032003 61 109 4.0 12.0 0.00 0.00 0.00 52 1010.3
20260902031507 61 130 5.0 13.0 0.00 0.00 0.00 50 1010.2
20260902031313 62 133 7.0 13.0 0.00 0.00 0.00 51 1011.5
20260902031005 62 138 5.0 15.0 0.00 0.00 0.00 50 1010.1
20260902030814 62 126 8.0 15.0 0.00 0.00 0.00 53 1011.3
20260902030503 62 115 8.0 15.0 0.00 0.00 0.00 52 1010.0
20260902030315 62 100 8.0 15.0 0.00 0.00 0.00 53 1011.3
20260902030007 62 104 7.0 15.0 0.00 0.00 0.00 54 1009.8
20260902025815 62 87 9.0 15.0 0.00 0.00 0.00 53 1011.2
20260902025504 62 103 8.0 15.0 0.00 0.00 0.00 51 1009.8
20260902025312 63 110 9.0 15.0 0.00 0.00 0.00 52 1011.2
20260902025036 63 88 9.0 15.0 0.00 0.00 0.00 51 1011.2
20260902025003 62 104 10.0 15.0 0.00 0.00 0.00 51 1009.8
20260902024504 62 117 10.0 17.0 0.00 0.00 0.00 50 1009.7
20260902024312 63 84 9.0 17.0 0.00 0.00 0.00 51 1011.1
20260902024004 63 109 10.0 17.0 0.00 0.00 0.00 52 1009.7
20260902023812 63 117 10.0 17.0 0.00 0.00 0.00 54 1011.0